TimeEST,TemperatureF,Dew PointF,Humidity,Sea Level PressureIn,VisibilityMPH,Wind Direction,Wind SpeedMPH,Gust SpeedMPH,PrecipitationIn,Events,Conditions,WindDirDegrees,DateUTC
12:53 AM,28.9,24.1,82,30.41,10.0,SSW,3.5,-,N/A,,Clear,200,2012-11-13 05:53:00
1:53 AM,28.0,23.0,81,30.41,10.0,South,4.6,-,N/A,,Clear,190,2012-11-13 06:53:00
2:53 AM,27.0,23.0,85,30.42,10.0,South,4.6,-,N/A,,Clear,190,2012-11-13 07:53:00
3:53 AM,28.9,24.1,82,30.42,10.0,Calm,Calm,-,N/A,,Clear,0,2012-11-13 08:53:00
4:53 AM,28.0,24.1,85,30.43,10.0,SSW,3.5,-,N/A,,Clear,200,2012-11-13 09:53:00
5:53 AM,25.0,21.9,88,30.45,10.0,South,4.6,-,N/A,,Clear,180,2012-11-13 10:53:00
6:53 AM,26.1,23.0,88,30.46,10.0,South,3.5,-,N/A,,Clear,180,2012-11-13 11:53:00
7:53 AM,26.1,25.0,96,30.48,10.0,South,3.5,-,N/A,,Clear,180,2012-11-13 12:53:00
8:53 AM,30.9,26.1,82,30.49,10.0,WSW,3.5,-,N/A,,Clear,240,2012-11-13 13:53:00
9:53 AM,33.1,26.1,75,30.50,10.0,West,5.8,-,N/A,,Clear,280,2012-11-13 14:53:00
10:53 AM,36.0,28.0,73,30.50,10.0,Variable,5.8,-,N/A,,Partly Cloudy,0,2012-11-13 15:53:00
11:43 AM,37.4,26.6,65,30.47,10.0,NW,6.9,-,N/A,,Mostly Cloudy,320,2012-11-13 16:43:00
11:53 AM,37.0,26.1,65,30.49,10.0,Variable,3.5,-,N/A,,Mostly Cloudy,0,2012-11-13 16:53:00
12:13 PM,37.4,24.8,60,30.46,10.0,WSW,6.9,-,N/A,,Mostly Cloudy,250,2012-11-13 17:13:00
12:53 PM,37.9,24.1,57,30.48,10.0,Variable,5.8,-,N/A,,Scattered Clouds,0,2012-11-13 17:53:00
1:53 PM,39.9,24.1,53,30.47,10.0,West,5.8,-,N/A,,Scattered Clouds,280,2012-11-13 18:53:00
2:53 PM,39.0,23.0,53,30.47,10.0,Calm,Calm,-,N/A,,Partly Cloudy,0,2012-11-13 19:53:00
3:53 PM,37.0,24.1,59,30.48,10.0,NW,4.6,-,N/A,,Clear,310,2012-11-13 20:53:00
4:53 PM,37.0,23.0,57,30.48,10.0,NNW,6.9,-,N/A,,Clear,340,2012-11-13 21:53:00
5:53 PM,34.0,24.1,67,30.49,10.0,North,5.8,-,N/A,,Clear,350,2012-11-13 22:53:00
6:53 PM,32.0,23.0,69,30.50,10.0,North,4.6,-,N/A,,Clear,10,2012-11-13 23:53:00
7:53 PM,33.1,23.0,66,30.51,10.0,NNE,4.6,-,N/A,,Clear,30,2012-11-14 00:53:00
8:53 PM,30.9,24.1,76,30.52,10.0,NE,3.5,-,N/A,,Clear,40,2012-11-14 01:53:00
9:53 PM,30.0,24.1,79,30.53,10.0,NE,3.5,-,N/A,,Clear,40,2012-11-14 02:53:00
10:53 PM,28.9,24.1,82,30.53,10.0,ENE,4.6,-,N/A,,Clear,60,2012-11-14 03:53:00
11:53 PM,27.0,21.9,81,30.53,10.0,ENE,3.5,-,N/A,,Clear,60,2012-11-14 04:53:00